Location: Sternwarte_Laufen
(47.9344°N, 12.9346°E)
Time: 05:41:37
(UTC+02:00)

Envisat - Visible Passes

Search period start: 26 September 2017 00:00
Search period end: 06 October 2017 00:00
Orbit: 764 x 766 km, 98.2° (Epoch: 25 September)

Date Brightness Start Highest point End Pass type
(mag) Time Alt. Az. Time Alt. Az. Time Alt. Az.
26 Sep 2.9 20:43:23 17° SSE 20:47:20 84° ENE 20:52:28 10° NNW visible
26 Sep 5.6 22:24:21 10° WSW 22:27:02 14° W 22:29:43 10° NW visible
27 Sep 3.4 20:06:25 12° SE 20:10:45 42° ENE 20:15:32 10° N visible
27 Sep 4.7 21:46:37 15° SW 21:49:54 29° W 21:54:19 10° NW visible
28 Sep 4.2 19:30:31 10° ESE 19:34:22 22° ENE 19:38:13 10° N visible
28 Sep 3.4 21:09:39 21° S 21:12:58 60° WSW 21:18:02 10° NNW visible
29 Sep 2.9 20:32:40 19° SSE 20:36:16 68° ENE 20:41:20 10° N visible
29 Sep 5.4 22:12:54 12° SW 22:15:47 18° W 22:19:11 10° NW visible
30 Sep 3.7 19:55:42 13° SE 19:59:44 34° ENE 20:04:18 10° N visible
30 Sep 4.4 21:35:55 20° SSW 21:38:43 36° W 21:43:24 10° NNW visible
01 Oct 4.4 19:19:58 10° E 19:23:23 19° ENE 19:26:49 10° NNE visible
01 Oct 3.1 20:58:56 26° S 21:01:51 74° WSW 21:06:58 10° NNW visible
01 Oct 5.9 22:41:21 10° W 22:41:46 10° W 22:42:11 10° W visible
02 Oct 3.1 20:21:58 21° SE 20:25:11 55° ENE 20:30:10 10° N visible
02 Oct 5.1 22:02:11 16° SW 22:04:33 22° W 22:08:28 10° NW visible
03 Oct 3.9 19:45:00 13° ESE 19:48:43 28° ENE 19:53:02 10° N visible
03 Oct 4.0 21:25:13 27° SSW 21:27:33 44° W 21:32:25 10° NNW visible
04 Oct 4.6 19:09:32 10° E 19:12:26 15° NE 19:15:20 10° NNE visible
04 Oct 2.9 20:48:14 31° SSE 20:50:45 90° SW 20:55:53 10° NNW visible
04 Oct 5.7 22:28:27 11° WSW 22:30:30 13° W 22:32:48 10° WNW visible
05 Oct 3.3 20:11:16 22° SE 20:14:09 45° ENE 20:18:58 10° N visible
05 Oct 4.8 21:51:29 21° SW 21:53:21 27° W 21:57:38 10° NW visible
